sat.trackr.live / text

‹ back to catalog

ICEYE-X58

NORAD 66751 · 2025-276CP

PAYLOAD ACTIVE UNKNOWN

§ Identity

Operator
Country
FIN
Launch date
2025-11-28
Launch site
AFWTR
Launch vehicle
Mass (kg)
RCS (m²)

External: N2YO · Heavens-Above · Gunter

§ Orbital elements

Epoch: 2026-09-20T22:28:46.405344Z

Period
94.89 min
Inclination
97.4124°
Eccentricity
0.0003637
Mean motion
15.17570744 rev/d
Perigee alt
510.7 km
Apogee alt
515.7 km
Semi-major
6,891.3 km
B*
8.4867e-5
RAAN
335.4026°
Arg perigee
28.7533°
Mean anomaly
331.3900°
Rev number
4,493

§ Raw data

ICEYE-X581 66751U 25276CP  26263.93664821  .00001638  00000+0  84867-4 0  99992 66751  97.4124 335.4026 0003637  28.7533 331.3900 15.17570744 44934

JSON: /api/v1/satellites/66751 · /tle

For live sub-satellite position, see the globe view (requires WebGL).

§ Visibility from observer

Set your observer location to see the next 7 days of passes ≥ 10°. The values pass through the URL so the page stays shareable.

No JS? Fill the form by hand. The geolocation button needs JavaScript.